Powrót do katalogu

STARLINK-30315

AktywnyŁącznośćVLEO
NORAD 57708·PAYLOAD·🇺🇸 United States

Wystrzelony Aug 27, 2023 z Cape Canaveral Space Force Station

Loading…

Następne Przeloty (najbliższe 24 godziny)

TLE

ŚwieżeSource: CelesTrak SupGP

Epoka: Sep 14, 2026, 22:09 UTC

1 57708C 23129L   26257.92340278 -.00001101  00000+0 -39887-4 0  2571
2 57708  42.9999 129.1590 0001412 272.3691 102.7957 15.27571571    19

Śledź STARLINK-30315 w czasie rzeczywistym z AllMySat

Download on the App Store